Torna al catalogo

POLYITAN 1

AttivoScienzaPO
NORAD 40042·PAYLOAD·🇺🇦 Ukraine

Lanciato Jun 19, 2014 da Dombarovsky

Loading…

Prossimi Passaggi (prossime 24 ore)

TLE

AggiornatoSource: Space-Track

Epoca: Sep 14, 2026, 01:12 UTC

1 40042U 14033AJ  26257.05037827  .00016110  00000-0  46030-3 0  9990
2 40042  98.0887 291.9027 0006482 182.1868 177.9346 15.36081254667221

Traccia POLYITAN 1 in tempo reale con AllMySat

Download on the App Store